الديوانية, العراق

01:39 PM AST on دسمبر 21, 2014 (GMT +0300)
Al-ashraf Intl | Change Station
CLOSE
Current Station
Airport
Location: Al-ashraf Intl,
Elevation: 105 ft
Nearby Weather Stations

Elev 105 ft 31.99 °N, 44.40 °E | Updated 39 minutes ago

Clear
صافية
63 °F
Feels Like 63 °F
N
12
ريح متغير ريح from WNW

هذا اليوم
High -- | Low -- °F
--% Chance of Precip.
Yesterday
High -- | Low -- °F
Precip. -- في
6:56 AM 4:59 PM
الهلال الأخير, 1% visible
الضغط 30.04 في
وضوح الرؤية 5.0 أميال
سحابات
نقطة الندى 45 °F
الرطوبة 52%
Rainfall 0.00 في
عمق الثلج Not available.
الأشعة فوق البنفسجية Not available.
Pollen Not available.
جودة الهواء Not available.
Flu Activity Not available.
METAR ORNI 211000Z 30010KT 8000 NSC 17/07 Q1017 NOSIG

More Conditions Fewer Conditions

الضغط 30.04 في
وضوح الرؤية 5.0 أميال
سحابات
نقطة الندى 45 °F
الرطوبة 52%
Rainfall 0.00 في
عمق الثلج Not available.
الأشعة فوق البنفسجية Not available.
Pollen Not available.
جودة الهواء Not available.
Flu Activity Not available.
METAR ORNI 211000Z 30010KT 8000 NSC 17/07 Q1017 NOSIG

More Conditions Fewer Conditions

10-Day Weather Forecast

Almanac

علم الفلك

Dec. 21, 2014 Rise Set
Actual Time
Civil Twilight
Nautical Twilight
Astronomical Twilight
قمر
Length Of Visible Light
طول الیوم
Tomorrow will be .
, % of the Moon is Illuminated

Today's Extremes

Country Highs Country Lows

Community

WunderPhotos

Upload Photos

1,779,367 photos uploaded!

WunderBlogs® & News

Nearby

جودة الهواء

  جودة الهواء AQ Index Pollutant
Not available.

عمق الثلج

Station Depth Elevation

Earthquake Activity

City Distance Mag. Time & Date
Minimum magnitude displayed is 2.5.

Coastal Water Temperatures

مكان درجات الحرارة

Nearby Weather Stations